SUR4085 SACO-SASA

Flight info

Callsign SUR4085
Flight time 1h 10m
Altitude 34000
Route DONKA 1G UW5 TUC UT657 ILPAR
Aircraft E170/M-SDE2E3FGHIRWXY/LB1

Departure

Time 2026-04-26 20:27
Airport Ingeniero Aeronáutico Ambrosio L.V. Taravella International Airport (SACO)

Arrival

Time 2026-04-26 21:37
Airport Martín Miguel de Güemes International Airport (SASA)
Time Latitude Longitude Altitude Speed Heading
2026-04-26 20:01 -31.31432 -64.21185 1611 ft 0 kts 224°
2026-04-26 20:13 -31.31433 -64.21185 1611 ft 0 kts 224°
2026-04-26 20:14 -31.31431 -64.21183 1611 ft 0 kts 255°
2026-04-26 20:14 -31.31428 -64.21169 1611 ft 2 kts 248°
2026-04-26 20:14 -31.31422 -64.21152 1611 ft 2 kts 246°
2026-04-26 20:15 -31.31416 -64.21136 1611 ft 2 kts 247°
2026-04-26 20:15 -31.31410 -64.21120 1611 ft 2 kts 247°
2026-04-26 20:15 -31.31407 -64.21113 1611 ft 0 kts 230°
2026-04-26 20:15 -31.31403 -64.21110 1611 ft 1 kts 177°
2026-04-26 20:16 -31.31393 -64.21111 1611 ft 2 kts 179°
2026-04-26 20:16 -31.31382 -64.21111 1611 ft 0 kts 180°
2026-04-26 20:18 -31.31384 -64.21111 1611 ft 0 kts 180°
2026-04-26 20:18 -31.31393 -64.21111 1611 ft 2 kts 182°
2026-04-26 20:18 -31.31416 -64.21112 1611 ft 4 kts 179°
2026-04-26 20:19 -31.31444 -64.21094 1611 ft 5 kts 137°
2026-04-26 20:19 -31.31464 -64.21059 1611 ft 5 kts 100°
2026-04-26 20:19 -31.31465 -64.21012 1611 ft 6 kts 90°
2026-04-26 20:19 -31.31465 -64.20963 1611 ft 6 kts 90°
2026-04-26 20:20 -31.31464 -64.20911 1611 ft 6 kts 89°
2026-04-26 20:20 -31.31461 -64.20858 1611 ft 6 kts 66°
2026-04-26 20:20 -31.31422 -64.20830 1611 ft 7 kts 11°
2026-04-26 20:20 -31.31357 -64.20828 1611 ft 10 kts 359°
2026-04-26 20:21 -31.31284 -64.20830 1611 ft 11 kts 359°
2026-04-26 20:21 -31.31202 -64.20830 1611 ft 12 kts 359°
2026-04-26 20:21 -31.31113 -64.20832 1611 ft 13 kts 359°
2026-04-26 20:21 -31.31016 -64.20834 1611 ft 14 kts 359°
2026-04-26 20:22 -31.30914 -64.20835 1611 ft 15 kts 359°
2026-04-26 20:22 -31.30805 -64.20837 1611 ft 16 kts 358°
2026-04-26 20:22 -31.30692 -64.20840 1611 ft 15 kts 360°
2026-04-26 20:22 -31.30586 -64.20840 1611 ft 15 kts 360°
2026-04-26 20:23 -31.30480 -64.20843 1611 ft 15 kts 359°
2026-04-26 20:23 -31.30376 -64.20845 1611 ft 14 kts 359°
2026-04-26 20:23 -31.30280 -64.20846 1611 ft 13 kts 359°
2026-04-26 20:23 -31.30184 -64.20848 1611 ft 13 kts 359°
2026-04-26 20:24 -31.30089 -64.20850 1611 ft 13 kts
2026-04-26 20:24 -31.29992 -64.20850 1611 ft 13 kts 358°
2026-04-26 20:24 -31.29903 -64.20853 1611 ft 11 kts 359°
2026-04-26 20:24 -31.29823 -64.20853 1611 ft 11 kts 359°
2026-04-26 20:25 -31.29751 -64.20855 1611 ft 10 kts 359°
2026-04-26 20:25 -31.29705 -64.20858 1611 ft 9 kts 352°
2026-04-26 20:25 -31.29628 -64.20882 1611 ft 5 kts 340°
2026-04-26 20:25 -31.29596 -64.20873 1611 ft 4 kts 74°
2026-04-26 20:26 -31.29618 -64.20855 1611 ft 4 kts 184°
2026-04-26 20:26 -31.29650 -64.20858 1611 ft 4 kts 184°
2026-04-26 20:26 -31.29693 -64.20856 1611 ft 15 kts 177°
2026-04-26 20:26 -31.30097 -64.20850 1611 ft 97 kts 179°
2026-04-26 20:27 -31.30996 -64.20833 1621 ft 158 kts 179°
2026-04-26 20:27 -31.32174 -64.20772 2179 ft 175 kts 173°
2026-04-26 20:27 -31.33302 -64.20359 3124 ft 175 kts 150°
2026-04-26 20:27 -31.34192 -64.19400 3596 ft 189 kts 123°
2026-04-26 20:28 -31.34662 -64.17873 3983 ft 218 kts 106°
2026-04-26 20:28 -31.34986 -64.15996 4406 ft 247 kts 105°
2026-04-26 20:28 -31.35337 -64.13985 4826 ft 257 kts 108°
2026-04-26 20:28 -31.36020 -64.12103 5221 ft 256 kts 124°
2026-04-26 20:29 -31.37015 -64.10394 5698 ft 250 kts 134°
2026-04-26 20:29 -31.38001 -64.08735 6194 ft 256 kts 110°
2026-04-26 20:29 -31.38023 -64.06630 6742 ft 270 kts 72°
2026-04-26 20:29 -31.36965 -64.04825 7300 ft 275 kts 34°
2026-04-26 20:30 -31.35235 -64.04024 7856 ft 268 kts 358°
2026-04-26 20:30 -31.33487 -64.04499 8418 ft 253 kts 321°
2026-04-26 20:30 -31.32400 -64.06020 8996 ft 249 kts 286°
2026-04-26 20:30 -31.31943 -64.07994 9555 ft 254 kts 282°
2026-04-26 20:31 -31.31637 -64.10017 10022 ft 255 kts 276°
2026-04-26 20:31 -31.31475 -64.12109 10089 ft 257 kts 273°
2026-04-26 20:31 -31.31398 -64.14172 10183 ft 254 kts 271°
2026-04-26 20:31 -31.31358 -64.16316 10734 ft 272 kts 270°
2026-04-26 20:32 -31.31282 -64.18559 11243 ft 289 kts 280°
2026-04-26 20:32 -31.30364 -64.20709 11781 ft 311 kts 308°
2026-04-26 20:32 -31.28516 -64.22179 12334 ft 327 kts 330°
2026-04-26 20:32 -31.26460 -64.23283 12830 ft 330 kts 328°
2026-04-26 20:33 -31.24386 -64.24453 13315 ft 332 kts 328°
2026-04-26 20:33 -31.22305 -64.25652 13794 ft 333 kts 327°
2026-04-26 20:33 -31.20200 -64.26876 14311 ft 337 kts 327°
2026-04-26 20:33 -31.18100 -64.28101 14796 ft 339 kts 327°
2026-04-26 20:34 -31.15994 -64.29330 15289 ft 341 kts 327°
2026-04-26 20:34 -31.13852 -64.30581 15785 ft 343 kts 327°
2026-04-26 20:34 -31.11723 -64.31824 16267 ft 347 kts 327°
2026-04-26 20:34 -31.09555 -64.33088 16769 ft 348 kts 327°
2026-04-26 20:35 -31.07389 -64.34351 17269 ft 352 kts 327°
2026-04-26 20:35 -31.05183 -64.35637 17766 ft 356 kts 327°
2026-04-26 20:35 -31.02968 -64.36926 18253 ft 358 kts 327°
2026-04-26 20:35 -31.00562 -64.37843 18734 ft 376 kts 347°
2026-04-26 20:36 -30.97936 -64.37978 19274 ft 384 kts 352°
2026-04-26 20:36 -30.95235 -64.38048 19784 ft 388 kts 351°
2026-04-26 20:36 -30.92518 -64.38113 20278 ft 390 kts 352°
2026-04-26 20:36 -30.89794 -64.38180 20789 ft 395 kts 352°
2026-04-26 20:37 -30.87077 -64.38244 21292 ft 397 kts 352°
2026-04-26 20:37 -30.84274 -64.38311 21800 ft 402 kts 352°
2026-04-26 20:37 -30.81469 -64.38377 22300 ft 404 kts 352°
2026-04-26 20:37 -30.78657 -64.38444 22811 ft 407 kts 351°
2026-04-26 20:38 -30.75827 -64.38512 23321 ft 411 kts 352°
2026-04-26 20:38 -30.72968 -64.38580 23814 ft 413 kts 352°
2026-04-26 20:38 -30.70078 -64.38648 24310 ft 417 kts 351°
2026-04-26 20:38 -30.67154 -64.38717 24815 ft 419 kts 351°
2026-04-26 20:39 -30.64257 -64.38786 25308 ft 422 kts 351°
2026-04-26 20:39 -30.61315 -64.38855 25805 ft 423 kts 351°
2026-04-26 20:39 -30.58366 -64.38925 26303 ft 423 kts 350°
2026-04-26 20:39 -30.55406 -64.38995 26791 ft 425 kts 350°
2026-04-26 20:40 -30.52435 -64.39064 27287 ft 427 kts 350°
2026-04-26 20:40 -30.49485 -64.39133 27783 ft 428 kts 349°
2026-04-26 20:40 -30.46505 -64.39201 28269 ft 429 kts 349°
2026-04-26 20:40 -30.43479 -64.39272 28651 ft 433 kts 349°
2026-04-26 20:41 -30.40508 -64.39440 29010 ft 429 kts 343°
2026-04-26 20:41 -30.37549 -64.40012 29396 ft 427 kts 340°
2026-04-26 20:41 -30.34621 -64.40617 29731 ft 429 kts 340°
2026-04-26 20:41 -30.31695 -64.41217 29951 ft 432 kts 340°
2026-04-26 20:42 -30.28750 -64.41819 30178 ft 432 kts 340°
2026-04-26 20:42 -30.25768 -64.42429 30414 ft 432 kts 340°
2026-04-26 20:42 -30.22792 -64.43037 30642 ft 434 kts 339°
2026-04-26 20:42 -30.19812 -64.43645 30860 ft 435 kts 339°
2026-04-26 20:43 -30.16855 -64.44248 31080 ft 436 kts 339°
2026-04-26 20:43 -30.13869 -64.44857 31321 ft 437 kts 339°
2026-04-26 20:43 -30.10866 -64.45468 31546 ft 437 kts 339°
2026-04-26 20:43 -30.07845 -64.46083 31756 ft 438 kts 339°
2026-04-26 20:44 -30.04856 -64.46691 31990 ft 438 kts 338°
2026-04-26 20:44 -30.01875 -64.47297 32213 ft 438 kts 338°
2026-04-26 20:44 -29.98849 -64.47913 32431 ft 440 kts 338°
2026-04-26 20:44 -29.95863 -64.48519 32650 ft 442 kts 338°
2026-04-26 20:45 -29.92824 -64.49136 32850 ft 440 kts 338°
2026-04-26 20:45 -29.89784 -64.49751 33073 ft 442 kts 337°
2026-04-26 20:45 -29.86776 -64.50362 33279 ft 444 kts 338°
2026-04-26 20:45 -29.83721 -64.50980 33498 ft 444 kts 337°
2026-04-26 20:46 -29.80669 -64.51599 33736 ft 446 kts 337°
2026-04-26 20:46 -29.77626 -64.52214 33962 ft 445 kts 337°
2026-04-26 20:46 -29.74580 -64.52831 33991 ft 445 kts 337°
2026-04-26 20:47 -29.68444 -64.54069 34006 ft 447 kts 338°
2026-04-26 20:47 -29.62290 -64.55311 33984 ft 447 kts 337°
2026-04-26 20:48 -29.56154 -64.56610 33989 ft 446 kts 336°
2026-04-26 20:48 -29.50040 -64.57949 33984 ft 449 kts 336°
2026-04-26 20:49 -29.43947 -64.59280 33973 ft 448 kts 336°
2026-04-26 20:49 -29.37832 -64.60613 33975 ft 445 kts 336°
2026-04-26 20:50 -29.31763 -64.61935 33972 ft 445 kts 336°
2026-04-26 20:50 -29.25667 -64.63261 33971 ft 445 kts 336°
2026-04-26 20:51 -29.19599 -64.64580 33967 ft 446 kts 336°
2026-04-26 20:51 -29.13479 -64.65910 33994 ft 447 kts 337°
2026-04-26 20:52 -29.07333 -64.67242 33996 ft 450 kts 336°
2026-04-26 20:52 -29.01220 -64.68565 33997 ft 447 kts 336°
2026-04-26 20:53 -28.95083 -64.69893 33997 ft 450 kts 336°
2026-04-26 20:53 -28.88945 -64.71219 34000 ft 448 kts 336°
2026-04-26 20:54 -28.82830 -64.72538 33999 ft 448 kts 336°
2026-04-26 20:54 -28.76683 -64.73863 34002 ft 451 kts 336°
2026-04-26 20:55 -28.70557 -64.75182 34001 ft 450 kts 336°
2026-04-26 20:55 -28.64404 -64.76504 34004 ft 450 kts 336°
2026-04-26 20:56 -28.58198 -64.77698 34006 ft 450 kts 338°
2026-04-26 20:56 -28.52020 -64.78853 34005 ft 453 kts 338°
2026-04-26 20:57 -28.45822 -64.80009 34004 ft 450 kts 338°
2026-04-26 20:57 -28.39654 -64.81161 34003 ft 452 kts 338°
2026-04-26 20:58 -28.33435 -64.82320 34003 ft 452 kts 338°
2026-04-26 20:58 -28.27218 -64.83477 34003 ft 453 kts 338°
2026-04-26 20:59 -28.20990 -64.84635 34001 ft 453 kts 338°
2026-04-26 20:59 -28.14819 -64.85780 34002 ft 450 kts 338°
2026-04-26 21:00 -28.08589 -64.86936 34003 ft 452 kts 338°
2026-04-26 21:00 -28.02378 -64.88086 34004 ft 452 kts 338°
2026-04-26 21:01 -27.96197 -64.89230 34000 ft 453 kts 338°
2026-04-26 21:01 -27.89974 -64.90381 33999 ft 455 kts 338°
2026-04-26 21:02 -27.83689 -64.91540 33995 ft 454 kts 338°
2026-04-26 21:02 -27.77524 -64.92676 33988 ft 449 kts 338°
2026-04-26 21:03 -27.71364 -64.93855 33984 ft 445 kts 337°
2026-04-26 21:03 -27.65265 -64.95060 33980 ft 445 kts 337°
2026-04-26 21:04 -27.59143 -64.96266 33977 ft 447 kts 338°
2026-04-26 21:04 -27.53028 -64.97468 33977 ft 445 kts 338°
2026-04-26 21:05 -27.46866 -64.98679 33975 ft 449 kts 338°
2026-04-26 21:05 -27.40715 -64.99886 33973 ft 449 kts 338°
2026-04-26 21:06 -27.34548 -65.01095 33979 ft 449 kts 338°
2026-04-26 21:06 -27.28404 -65.02298 33982 ft 450 kts 338°
2026-04-26 21:07 -27.22221 -65.03507 33997 ft 450 kts 338°
2026-04-26 21:07 -27.16069 -65.04709 33985 ft 450 kts 338°
2026-04-26 21:08 -27.09885 -65.05916 33995 ft 452 kts 338°
2026-04-26 21:08 -27.03696 -65.07122 33990 ft 451 kts 339°
2026-04-26 21:09 -26.97502 -65.08329 34012 ft 452 kts 339°
2026-04-26 21:09 -26.91298 -65.09534 34002 ft 451 kts 339°
2026-04-26 21:10 -26.85099 -65.10698 34001 ft 458 kts 343°
2026-04-26 21:10 -26.81877 -65.10824 34015 ft 470 kts 350°
2026-04-26 21:10 -26.78589 -65.10765 33909 ft 471 kts 349°
2026-04-26 21:10 -26.75346 -65.10712 33383 ft 458 kts 349°
2026-04-26 21:11 -26.72213 -65.10666 32914 ft 443 kts 349°
2026-04-26 21:11 -26.69184 -65.10623 32475 ft 429 kts 348°
2026-04-26 21:11 -26.66258 -65.10582 32031 ft 415 kts 348°
2026-04-26 21:11 -26.63418 -65.10542 31579 ft 403 kts 348°
2026-04-26 21:12 -26.60655 -65.10504 31134 ft 392 kts 348°
2026-04-26 21:12 -26.57952 -65.10466 30694 ft 381 kts 348°
2026-04-26 21:12 -26.55318 -65.10430 30250 ft 374 kts 348°
2026-04-26 21:12 -26.52719 -65.10396 29825 ft 372 kts 348°
2026-04-26 21:13 -26.50159 -65.10362 29422 ft 371 kts 348°
2026-04-26 21:13 -26.47573 -65.10326 28999 ft 371 kts 348°
2026-04-26 21:13 -26.44990 -65.10289 28605 ft 369 kts 348°
2026-04-26 21:13 -26.42441 -65.10254 28217 ft 367 kts 349°
2026-04-26 21:14 -26.39876 -65.10218 27819 ft 365 kts 349°
2026-04-26 21:14 -26.37368 -65.10182 27427 ft 361 kts 349°
2026-04-26 21:14 -26.34849 -65.10148 27035 ft 361 kts 349°
2026-04-26 21:14 -26.32328 -65.10113 26639 ft 360 kts 349°
2026-04-26 21:15 -26.29855 -65.10078 26257 ft 357 kts 349°
2026-04-26 21:15 -26.27344 -65.10045 25757 ft 363 kts 350°
2026-04-26 21:15 -26.24807 -65.10010 25268 ft 368 kts 350°
2026-04-26 21:15 -26.22268 -65.09973 24768 ft 364 kts 350°
2026-04-26 21:16 -26.19727 -65.09937 24242 ft 361 kts 350°
2026-04-26 21:16 -26.17185 -65.09907 23750 ft 377 kts 351°
2026-04-26 21:16 -26.14502 -65.09869 23265 ft 385 kts 351°
2026-04-26 21:16 -26.11812 -65.09828 22756 ft 383 kts 351°
2026-04-26 21:17 -26.09141 -65.09791 22239 ft 382 kts 352°
2026-04-26 21:17 -26.06485 -65.09753 21726 ft 377 kts 352°
2026-04-26 21:17 -26.03899 -65.09717 21207 ft 373 kts 352°
2026-04-26 21:17 -26.01324 -65.09682 20699 ft 370 kts 353°
2026-04-26 21:18 -25.98747 -65.09646 20185 ft 366 kts 353°
2026-04-26 21:18 -25.96219 -65.09611 19676 ft 364 kts 354°
2026-04-26 21:18 -25.93678 -65.09576 19203 ft 361 kts 354°
2026-04-26 21:18 -25.91181 -65.09542 18683 ft 358 kts 355°
2026-04-26 21:19 -25.88708 -65.09508 18161 ft 354 kts 355°
2026-04-26 21:19 -25.86234 -65.09473 17685 ft 352 kts 356°
2026-04-26 21:19 -25.83805 -65.09440 17194 ft 350 kts 356°
2026-04-26 21:19 -25.81390 -65.09406 16660 ft 342 kts 356°
2026-04-26 21:20 -25.79035 -65.09373 16143 ft 334 kts 357°
2026-04-26 21:20 -25.76742 -65.09342 15646 ft 328 kts 358°
2026-04-26 21:20 -25.74472 -65.09311 15187 ft 320 kts 358°
2026-04-26 21:20 -25.72296 -65.09280 15103 ft 300 kts 358°
2026-04-26 21:21 -25.70280 -65.09367 15069 ft 276 kts 341°
2026-04-26 21:21 -25.68637 -65.10188 15116 ft 253 kts 328°
2026-04-26 21:21 -25.67093 -65.11151 15124 ft 253 kts 327°
2026-04-26 21:21 -25.65545 -65.12139 15133 ft 256 kts 327°
2026-04-26 21:22 -25.63997 -65.13140 15143 ft 259 kts 327°
2026-04-26 21:22 -25.62433 -65.14156 14929 ft 263 kts 327°
2026-04-26 21:22 -25.60864 -65.15177 14664 ft 261 kts 327°
2026-04-26 21:23 -25.57758 -65.17203 14167 ft 259 kts 328°
2026-04-26 21:23 -25.56207 -65.18214 13937 ft 259 kts 328°
2026-04-26 21:23 -25.54642 -65.19235 13658 ft 260 kts 328°
2026-04-26 21:23 -25.53010 -65.20299 13467 ft 279 kts 329°
2026-04-26 21:24 -25.51327 -65.21395 13253 ft 283 kts 329°
2026-04-26 21:24 -25.49622 -65.22506 13021 ft 283 kts 329°
2026-04-26 21:24 -25.47934 -65.23605 12770 ft 282 kts 329°
2026-04-26 21:24 -25.46250 -65.24702 12501 ft 281 kts 329°
2026-04-26 21:25 -25.44562 -65.25800 12243 ft 279 kts 329°
2026-04-26 21:25 -25.42895 -65.26885 11995 ft 280 kts 329°
2026-04-26 21:25 -25.41231 -65.27967 11777 ft 279 kts 329°
2026-04-26 21:25 -25.39540 -65.29067 11536 ft 279 kts 330°
2026-04-26 21:26 -25.37876 -65.30149 11311 ft 279 kts 330°
2026-04-26 21:26 -25.36211 -65.31231 11018 ft 273 kts 330°
2026-04-26 21:26 -25.34595 -65.32282 10632 ft 270 kts 330°
2026-04-26 21:26 -25.32971 -65.33335 10246 ft 266 kts 330°
2026-04-26 21:27 -25.31411 -65.34349 10158 ft 251 kts 330°
2026-04-26 21:27 -25.29913 -65.35321 10058 ft 248 kts 330°
2026-04-26 21:27 -25.28431 -65.36282 9719 ft 246 kts 330°
2026-04-26 21:27 -25.26975 -65.37228 9393 ft 244 kts 330°
2026-04-26 21:28 -25.25506 -65.38180 9061 ft 242 kts 330°
2026-04-26 21:28 -25.24082 -65.39104 8840 ft 236 kts 330°
2026-04-26 21:28 -25.22665 -65.40022 8819 ft 235 kts 330°
2026-04-26 21:28 -25.21235 -65.40949 8816 ft 239 kts 330°
2026-04-26 21:29 -25.19826 -65.41861 8807 ft 232 kts 330°
2026-04-26 21:29 -25.18445 -65.42756 8811 ft 229 kts 330°
2026-04-26 21:29 -25.17076 -65.43642 8816 ft 228 kts 331°
2026-04-26 21:29 -25.15824 -65.44736 8822 ft 227 kts 314°
2026-04-26 21:30 -25.14735 -65.45986 8693 ft 229 kts 315°
2026-04-26 21:30 -25.13645 -65.47240 8435 ft 225 kts 315°
2026-04-26 21:30 -25.12573 -65.48473 8215 ft 218 kts 315°
2026-04-26 21:30 -25.11538 -65.49665 8010 ft 211 kts 315°
2026-04-26 21:31 -25.10532 -65.50822 7777 ft 205 kts 314°
2026-04-26 21:31 -25.09570 -65.51929 7550 ft 200 kts 314°
2026-04-26 21:31 -25.08569 -65.52992 7200 ft 199 kts 331°
2026-04-26 21:31 -25.07261 -65.53271 6874 ft 191 kts
2026-04-26 21:32 -25.05969 -65.53037 6566 ft 189 kts 11°
2026-04-26 21:32 -25.04677 -65.52783 6329 ft 182 kts 13°
2026-04-26 21:32 -25.03498 -65.52526 6278 ft 163 kts 13°
2026-04-26 21:32 -25.02417 -65.52290 6358 ft 160 kts 13°
2026-04-26 21:33 -25.01308 -65.52043 6295 ft 161 kts 13°
2026-04-26 21:33 -25.00208 -65.51803 6264 ft 155 kts 13°
2026-04-26 21:33 -24.99180 -65.51581 6248 ft 151 kts 13°
2026-04-26 21:33 -24.98145 -65.51355 6119 ft 150 kts 13°
2026-04-26 21:34 -24.97127 -65.51134 5946 ft 148 kts 13°
2026-04-26 21:34 -24.96104 -65.50909 5768 ft 148 kts 13°
2026-04-26 21:34 -24.95097 -65.50688 5587 ft 148 kts 13°
2026-04-26 21:34 -24.94076 -65.50468 5399 ft 148 kts 13°
2026-04-26 21:35 -24.93075 -65.50250 5215 ft 146 kts 13°
2026-04-26 21:35 -24.92074 -65.50034 5024 ft 144 kts 13°
2026-04-26 21:35 -24.91094 -65.49822 4843 ft 144 kts 13°
2026-04-26 21:35 -24.90080 -65.49616 4647 ft 148 kts 13°
2026-04-26 21:36 -24.89063 -65.49394 4442 ft 150 kts 13°
2026-04-26 21:36 -24.88041 -65.49180 4207 ft 147 kts 14°
2026-04-26 21:36 -24.87060 -65.48949 4091 ft 141 kts 13°
2026-04-26 21:36 -24.86168 -65.48749 4090 ft 111 kts 11°
2026-04-26 21:37 -24.85545 -65.48614 4091 ft 70 kts 12°
2026-04-26 21:37 -24.85104 -65.48515 4091 ft 52 kts 11°
2026-04-26 21:37 -24.84892 -65.48471 4091 ft 18 kts 12°
2026-04-26 21:37 -24.84779 -65.48447 4091 ft 14 kts 11°
2026-04-26 21:38 -24.84716 -65.48429 4091 ft 5 kts 25°
2026-04-26 21:38 -24.84690 -65.48410 4091 ft 3 kts 37°
2026-04-26 21:38 -24.84672 -65.48392 4091 ft 3 kts 41°
2026-04-26 21:38 -24.84652 -65.48372 4091 ft 4 kts 40°
2026-04-26 21:39 -24.84629 -65.48350 4091 ft 4 kts 43°
2026-04-26 21:39 -24.84609 -65.48322 4091 ft 4 kts 62°
2026-04-26 21:39 -24.84596 -65.48286 4091 ft 5 kts 71°
2026-04-26 21:39 -24.84583 -65.48244 4091 ft 5 kts 71°
2026-04-26 21:40 -24.84569 -65.48199 4091 ft 6 kts 71°
2026-04-26 21:40 -24.84555 -65.48151 4091 ft 6 kts 71°
2026-04-26 21:40 -24.84541 -65.48101 4091 ft 6 kts 73°
2026-04-26 21:40 -24.84527 -65.48051 4091 ft 6 kts 72°
2026-04-26 21:41 -24.84513 -65.48008 4091 ft 6 kts 71°
2026-04-26 21:41 -24.84515 -65.47961 4091 ft 6 kts 111°
2026-04-26 21:41 -24.84532 -65.47916 4091 ft 5 kts 111°
2026-04-26 21:41 -24.84543 -65.47885 4091 ft 4 kts 112°
2026-04-26 21:42 -24.84554 -65.47855 4091 ft 4 kts 111°
2026-04-26 21:42 -24.84562 -65.47826 4091 ft 3 kts 90°
2026-04-26 21:42 -24.84550 -65.47810 4091 ft 1 kts 22°
2026-04-26 21:42 -24.84542 -65.47807 4091 ft 1 kts 23°
2026-04-26 21:43 -24.84533 -65.47803 4091 ft 0 kts 22°
2026-04-26 21:43 -24.84527 -65.47800 4091 ft 0 kts 22°
2026-04-26 21:43 -24.84521 -65.47797 4091 ft 0 kts 21°
2026-04-26 21:43 -24.84518 -65.47797 4091 ft 0 kts 21°